KR4ELZ Weather Reports


time (UTC)temp
C
wind
direction
speed
KPH
gust
KPH
rain 1hr
cm
rain 24hr
cm
rain mn
cm
humidity
%
barometer
mb
20260510192655 30 252 1.6 3.2 0.00 0.00 0.00 41 1015.9
20260510192150 30 246 1.6 1.6 0.00 0.00 0.00 39 1015.6
20260510191647 30 242 1.6 1.6 0.00 0.00 0.00 40 1016.1
20260510191143 30 181 1.6 1.6 0.00 0.00 0.00 39 1015.9
20260510190641 30 174 0.0 1.6 0.00 0.00 0.00 43 1015.8
20260510190138 29 168 1.6 3.2 0.00 0.00 0.00 43 1015.8
20260510185634 29 226 1.6 1.6 0.00 0.00 0.00 49 1015.8
20260510185133 28 143 1.6 1.6 0.00 0.00 0.00 44 1015.7
20260510184629 29 17 1.6 3.2 0.00 0.00 0.00 43 1015.7
20260510184125 28 231 1.6 3.2 0.00 0.00 0.00 45 1015.8
20260510183620 28 166 1.6 1.6 0.00 0.00 0.00 46 1015.9
20260510183116 28 166 1.6 3.2 0.00 0.00 0.00 47 1016.1
20260510182613 28 259 1.6 3.2 0.00 0.00 0.00 46 1015.9
20260510182108 28 243 3.2 3.2 0.00 0.00 0.00 47 1015.9
20260510181606 28 232 1.6 1.6 0.00 0.00 0.00 46 1016.0
20260510181102 28 13 3.2 4.8 0.00 0.00 0.00 45 1016.0
20260510180558 28 224 1.6 1.6 0.00 0.00 0.00 47 1016.2
20260510180056 28 244 3.2 3.2 0.00 0.00 0.00 51 1016.2
20260510175557 28 201 1.6 1.6 0.00 0.00 0.00 52 1016.2
20260510175052 28 194 3.2 3.2 0.00 0.00 0.00 46 1016.6
20260510174551 27 227 0.0 0.0 0.00 0.00 0.00 50 1016.4
20260510174048 27 241 1.6 1.6 0.00 0.00 0.00 54 1016.4
20260510173543 27 238 0.0 1.6 0.00 0.00 0.00 55 1016.5
20260510173040 27 46 1.6 1.6 0.00 0.00 0.00 52 1016.6
20260510172536 28 221 0.0 1.6 0.00 0.00 0.00 50 1016.7
20260510172032 27 195 0.0 0.0 0.00 0.00 0.00 57 1016.8
20260510171529 27 193 0.0 1.6 0.00 0.00 0.00 56 1016.8
20260510171026 26 192 0.0 1.6 0.00 0.00 0.00 54 1016.6
20260510170523 26 239 0.0 1.6 0.00 0.00 0.00 59 1016.9
20260510170020 26 249 4.8 4.8 0.00 0.00 0.00 58 1016.8
20260510165515 27 22 1.6 3.2 0.00 0.00 0.00 56 1016.7
20260510165012 28 231 0.0 0.0 0.00 0.00 0.00 58 1016.8
20260510164509 28 242 1.6 3.2 0.00 0.00 0.00 51 1016.6
20260510164004 28 276 1.6 3.2 0.00 0.00 0.00 51 1016.7
20260510163500 28 252 3.2 4.8 0.00 0.00 0.00 54 1016.7
20260510162955 27 194 0.0 0.0 0.00 0.00 0.00 54 1016.7
20260510162452 26 271 1.6 3.2 0.00 0.00 0.00 58 1016.8
20260510161949 27 224 1.6 1.6 0.00 0.00 0.00 54 1016.8
20260510161444 26 237 1.6 1.6 0.00 0.00 0.00 62 1016.8
20260510160942 26 194 0.0 1.6 0.00 0.00 0.00 61 1017.0
20260510160439 26 228 0.0 1.6 0.00 0.00 0.00 62 1016.9
20260510155937 25 268 3.2 4.8 0.00 0.00 0.00 63 1016.8
20260510155434 26 231 3.2 3.2 0.00 0.00 0.00 65 1016.7
20260510154931 26 227 0.0 0.0 0.00 0.00 0.00 67 1016.7
20260510154427 27 230 3.2 3.2 0.00 0.00 0.00 60 1016.8
20260510153925 25 222 1.6 1.6 0.00 0.00 0.00 68 1016.7
20260510153423 26 225 1.6 3.2 0.00 0.00 0.00 68 1016.7
20260510152919 26 116 1.6 3.2 0.00 0.00 0.00 68 1016.7
20260510152417 25 256 1.6 3.2 0.00 0.00 0.00 72 1016.6
20260510151913 25 214 1.6 3.2 0.00 0.00 0.00 72 1016.7
20260510151411 25 217 1.6 1.6 0.00 0.00 0.00 74 1016.6
20260510150907 25 225 3.2 3.2 0.00 0.00 0.00 72 1016.7
20260510150402 24 237 1.6 1.6 0.00 0.00 0.00 74 1016.7
20260510145858 24 189 4.8 4.8 0.00 0.00 0.00 74 1016.5
20260510145355 24 230 1.6 1.6 0.00 0.00 0.00 75 1016.5
20260510144851 23 222 1.6 1.6 0.00 0.00 0.00 76 1016.4
20260510144348 23 226 1.6 1.6 0.00 0.00 0.00 77 1016.5
20260510143843 23 226 1.6 1.6 0.00 0.00 0.00 79 1016.6
20260510143339 23 229 4.8 6.4 0.00 0.00 0.00 78 1016.4
20260510142837 22 259 6.4 6.4 0.00 0.00 0.00 80 1016.5
20260510142333 23 250 3.2 3.2 0.00 0.00 0.00 79 1016.6
20260510141830 23 209 1.6 3.2 0.00 0.00 0.00 82 1016.5
20260510141327 22 158 0.0 1.6 0.00 0.00 0.00 82 1016.5
20260510140824 22 205 1.6 1.6 0.00 0.00 0.00 82 1016.5
20260510140315 22 222 1.6 1.6 0.00 0.00 0.00 81 1016.5
20260510135813 22 226 1.6 1.6 0.00 0.00 0.00 82 1016.6
20260510135309 22 234 1.6 1.6 0.00 0.00 0.00 83 1016.5
20260510134807 21 226 0.0 1.6 0.00 0.00 0.00 85 1016.3
20260510134304 21 218 1.6 1.6 0.00 0.00 0.00 85 1016.5
20260510133800 21 239 3.2 3.2 0.00 0.00 0.00 84 1016.4
20260510133256 21 215 1.6 1.6 0.00 0.00 0.00 85 1016.2
20260510132751 21 253 3.2 4.8 0.00 0.00 0.00 85 1016.1
20260510132250 21 254 0.0 1.6 0.00 0.00 0.00 86 1016.4
20260510131746 20 254 0.0 0.0 0.00 0.00 0.00 86 1016.2
20260510131244 20 254 1.6 1.6 0.00 0.00 0.00 87 1016.4
20260510130740 19 253 0.0 0.0 0.00 0.00 0.00 88 1016.3
20260510130238 19 253 0.0 0.0 0.00 0.00 0.00 89 1016.2
20260510125734 18 253 0.0 0.0 0.00 0.00 0.00 89 1016.4
20260510125230 17 254 0.0 0.0 0.00 0.00 0.00 94 1016.4
20260510124726 17 254 0.0 0.0 0.00 0.00 0.00 95 1016.3
20260510124225 16 254 0.0 0.0 0.00 0.00 0.00 97 1016.5
20260510123719 16 254 0.0 0.0 0.00 0.00 0.00 98 1016.3
20260510123216 16 254 0.0 0.0 0.00 0.00 0.00 99 1016.2
20260510122712 15 254 0.0 0.0 0.00 0.00 0.00 99 1016.1
20260510122209 15 254 0.0 0.0 0.00 0.00 0.00 99 1016.1
20260510121705 15 254 0.0 0.0 0.00 0.00 0.00 99 1015.9
20260510121203 15 254 0.0 0.0 0.00 0.00 0.00 99 1015.9
20260510120659 15 254 0.0 0.0 0.00 0.00 0.00 99 1016.0
20260510120156 15 254 0.0 0.0 0.00 0.00 0.00 99 1015.9
20260510115651 15 254 0.0 0.0 0.00 0.00 0.00 99 1015.8
20260510115150 15 254 0.0 0.0 0.00 0.00 0.00 99 1015.6
20260510114645 15 254 0.0 0.0 0.00 0.00 0.00 99 1015.9
20260510114142 14 254 0.0 0.0 0.00 0.00 0.00 99 1015.6
20260510113637 14 254 0.0 1.6 0.00 0.00 0.00 99 1015.6
20260510113134 14 254 1.6 1.6 0.00 0.00 0.00 99 1015.2
20260510112631 15 254 1.6 1.6 0.00 0.00 0.00 99 1015.4
20260510112128 15 254 0.0 0.0 0.00 0.00 0.00 99 1015.0
20260510111624 14 254 0.0 1.6 0.00 0.00 0.00 99 1015.2
20260510111120 14 254 1.6 1.6 0.00 0.00 0.00 99 1014.8
20260510110616 15 254 0.0 1.6 0.00 0.00 0.00 99 1014.8
20260510110113 15 252 0.0 0.0 0.00 0.00 0.00 99 1014.7
20260510105609 15 252 0.0 0.0 0.00 0.00 0.00 99 1014.5
20260510105103 15 252 0.0 0.0 0.00 0.00 0.00 99 1014.7
20260510104600 15 252 0.0 0.0 0.00 0.00 0.00 99 1014.6
20260510104057 15 252 0.0 0.0 0.00 0.00 0.00 99 1014.5
20260510103554 15 252 0.0 0.0 0.00 0.00 0.00 99 1014.5
20260510103050 15 252 0.0 0.0 0.00 0.00 0.00 99 1014.5
20260510102545 15 252 0.0 0.0 0.00 0.00 0.00 99 1014.5
20260510102041 15 252 0.0 0.0 0.00 0.00 0.00 99 1014.5
20260510101539 15 252 0.0 0.0 0.00 0.00 0.00 99 1014.4
20260510101038 15 252 0.0 0.0 0.00 0.00 0.00 99 1014.2
20260510100533 15 252 0.0 0.0 0.00 0.00 0.00 99 1014.3
20260510100031 15 252 0.0 0.0 0.00 0.00 0.00 99 1014.2
20260510095527 15 252 0.0 0.0 0.00 0.00 0.00 99 1014.1
20260510095026 15 252 0.0 0.0 0.00 0.00 0.00 99 1014.0
20260510094520 15 252 0.0 0.0 0.00 0.00 0.00 99 1014.1
20260510094017 15 252 0.0 0.0 0.00 0.00 0.00 99 1013.9
20260510093512 15 252 0.0 0.0 0.00 0.00 0.00 99 1013.8
20260510093009 15 253 0.0 0.0 0.00 0.00 0.00 99 1013.8
20260510092506 15 253 0.0 0.0 0.00 0.00 0.00 99 1013.7
20260510092006 15 253 0.0 0.0 0.00 0.00 0.00 99 1013.8
20260510091503 15 253 0.0 0.0 0.00 0.00 0.00 99 1013.6
20260510090959 15 253 0.0 0.0 0.00 0.00 0.00 99 1013.7
20260510090456 15 253 0.0 0.0 0.00 0.00 0.00 99 1013.8
20260510085951 15 253 0.0 0.0 0.00 0.00 0.00 99 1013.8
20260510085447 15 253 0.0 0.0 0.00 0.00 0.00 99 1013.6
20260510084942 15 253 0.0 0.0 0.00 0.00 0.00 99 1013.5
20260510084440 15 253 0.0 0.0 0.00 0.00 0.00 99 1013.7
20260510083937 15 253 0.0 0.0 0.00 0.00 0.00 98 1013.8
20260510083433 15 253 0.0 0.0 0.00 0.00 0.00 98 1013.7
20260510082928 15 253 0.0 0.0 0.00 0.00 0.00 98 1013.7
20260510082427 15 253 0.0 0.0 0.00 0.00 0.00 98 1013.6
20260510081925 15 253 0.0 0.0 0.00 0.00 0.00 98 1013.5
20260510081421 15 253 0.0 0.0 0.00 0.00 0.00 98 1013.8
20260510080918 15 253 0.0 0.0 0.00 0.00 0.00 98 1013.8
20260510080417 15 253 0.0 0.0 0.00 0.00 0.00 98 1013.6
20260510075914 15 253 0.0 0.0 0.00 0.00 0.00 98 1013.7
20260510075412 15 253 0.0 0.0 0.00 0.00 0.00 98 1013.5
20260510074908 15 253 0.0 0.0 0.00 0.00 0.00 98 1013.6
20260510074405 16 253 0.0 0.0 0.00 0.00 0.00 98 1013.6
20260510073902 16 253 0.0 0.0 0.00 0.00 0.00 98 1013.6
20260510073357 16 253 0.0 0.0 0.00 0.00 0.00 98 1013.3
20260510072854 16 253 0.0 0.0 0.00 0.00 0.00 98 1013.5
20260510072351 16 253 0.0 0.0 0.00 0.00 0.00 98 1013.3
20260510071846 16 253 0.0 0.0 0.00 0.00 0.00 98 1013.4
20260510071343 16 253 0.0 0.0 0.00 0.00 0.00 98 1013.5
20260510070842 16 253 0.0 0.0 0.00 0.00 0.00 98 1013.1
20260510070338 16 253 0.0 0.0 0.00 0.00 0.00 97 1013.3
20260510065833 16 253 0.0 0.0 0.00 0.00 0.00 97 1013.4
20260510065330 16 253 0.0 0.0 0.00 0.00 0.00 97 1012.9
20260510064827 16 253 0.0 0.0 0.00 0.00 0.00 97 1013.3
20260510064325 16 253 0.0 0.0 0.00 0.00 0.00 97 1013.0
20260510063820 16 253 0.0 0.0 0.00 0.00 0.00 97 1013.3
20260510063317 16 253 0.0 0.0 0.00 0.00 0.00 97 1013.0
20260510062814 16 253 0.0 0.0 0.00 0.00 0.00 96 1013.3
20260510062309 16 253 0.0 0.0 0.00 0.00 0.00 96 1013.1
20260510061805 16 253 0.0 0.0 0.00 0.00 0.00 96 1013.1
20260510061302 16 253 0.0 0.0 0.00 0.00 0.00 96 1013.1
20260510060758 16 253 0.0 0.0 0.00 0.00 0.00 96 1013.4
20260510060255 16 253 0.0 0.0 0.00 0.00 0.00 95 1013.3
20260510055752 16 253 0.0 0.0 0.00 0.00 0.00 95 1013.3
20260510055250 16 253 0.0 0.0 0.00 0.00 0.00 95 1013.1
20260510054750 16 253 0.0 0.0 0.00 0.00 0.00 94 1013.1
20260510054246 16 253 0.0 0.0 0.00 0.00 0.00 94 1013.3
20260510053746 16 253 0.0 0.0 0.00 0.00 0.00 94 1013.0
20260510053242 16 253 0.0 0.0 0.00 0.00 0.00 94 1013.3
20260510052738 16 253 0.0 0.0 0.00 0.00 0.00 93 1013.3
20260510052234 16 253 0.0 0.0 0.00 0.00 0.00 92 1013.0
20260510051730 16 253 0.0 0.0 0.00 0.00 0.00 92 1013.1
20260510051227 16 253 0.0 0.0 0.00 0.00 0.00 92 1013.3
20260510050724 16 253 0.0 0.0 0.00 0.00 0.00 91 1013.1
20260510050221 16 253 0.0 0.0 0.00 0.00 0.00 90 1013.3
20260510045718 16 253 0.0 0.0 0.00 0.00 0.00 90 1012.9
20260510045214 16 253 0.0 0.0 0.00 0.00 0.00 89 1013.1
20260510044710 16 253 0.0 0.0 0.00 0.00 0.00 88 1013.1
20260510044209 16 253 0.0 0.0 0.00 0.00 0.00 87 1013.0
20260510043704 16 253 0.0 0.0 0.00 0.00 0.00 86 1013.1
20260510043201 16 253 0.0 0.0 0.00 0.00 0.00 86 1013.1
20260510042658 16 253 0.0 0.0 0.00 0.00 0.00 85 1013.1
20260510042154 16 253 0.0 0.0 0.00 0.00 0.00 85 1013.4
20260510041651 16 253 0.0 0.0 0.00 0.00 0.00 85 1013.3
20260510041148 16 253 0.0 0.0 0.00 0.00 0.00 84 1013.4
20260510040645 16 253 0.0 0.0 0.00 0.00 0.00 83 1013.1
20260510040142 16 253 0.0 0.0 0.00 0.00 0.00 83 1013.1
20260510035637 16 253 0.0 0.0 0.00 0.00 0.00 82 1013.3
20260510035133 16 253 0.0 0.0 0.00 0.00 0.00 82 1013.1
20260510034630 16 253 0.0 0.0 0.00 0.00 0.00 83 1013.3
20260510034127 16 253 0.0 0.0 0.00 0.00 0.00 84 1013.1
20260510033623 16 253 0.0 0.0 0.00 0.00 0.00 84 1013.3
20260510033121 16 253 0.0 0.0 0.00 0.00 0.00 84 1013.3
20260510032617 17 253 0.0 0.0 0.00 0.00 0.00 83 1013.3
20260510032113 17 253 0.0 1.6 0.00 0.00 0.00 83 1013.4
20260510031608 17 253 0.0 0.0 0.00 0.00 0.00 81 1013.1
20260510031104 17 253 0.0 0.0 0.00 0.00 0.00 80 1013.6
20260510030559 17 253 0.0 0.0 0.00 0.00 0.00 81 1013.1
20260510030057 17 253 0.0 0.0 0.00 0.00 0.00 80 1013.0
20260510025554 17 253 0.0 0.0 0.00 0.00 0.00 80 1013.3
20260510025052 17 253 0.0 0.0 0.00 0.00 0.00 79 1013.3
20260510024548 17 253 0.0 0.0 0.00 0.00 0.00 79 1012.8
20260510024044 17 253 0.0 0.0 0.00 0.00 0.00 79 1013.3
20260510023541 17 253 0.0 0.0 0.00 0.00 0.00 78 1012.8
20260510023038 17 253 0.0 0.0 0.00 0.00 0.00 77 1012.7
20260510022537 17 253 0.0 0.0 0.00 0.00 0.00 77 1012.6
20260510022032 17 253 0.0 0.0 0.00 0.00 0.00 76 1012.6
20260510021529 18 253 0.0 0.0 0.00 0.00 0.00 76 1012.5
20260510021027 18 253 0.0 0.0 0.00 0.00 0.00 75 1012.4
20260510020526 18 253 1.6 1.6 0.00 0.00 0.00 72 1012.2
20260510020022 18 253 0.0 0.0 0.00 0.00 0.00 70 1012.1
20260510015518 18 253 0.0 0.0 0.00 0.00 0.00 71 1011.9
20260510015014 18 253 0.0 0.0 0.00 0.00 0.00 70 1011.8
20260510014511 18 253 0.0 0.0 0.00 0.00 0.00 70 1011.7
20260510014008 19 253 0.0 0.0 0.00 0.00 0.00 66 1011.6
20260510013502 20 253 0.0 0.0 0.00 0.00 0.00 66 1011.5
20260510012958 20 253 0.0 0.0 0.00 0.00 0.00 64 1011.5
20260510012453 20 253 0.0 0.0 0.00 0.00 0.00 62 1011.4
20260510011948 20 253 0.0 0.0 0.00 0.00 0.00 61 1011.2
20260510011443 20 253 0.0 0.0 0.00 0.00 0.00 63 1011.4
20260510010939 20 253 0.0 0.0 0.00 0.00 0.00 58 1011.1
20260510010437 20 253 0.0 0.0 0.00 0.00 0.00 58 1011.2
20260510005934 21 253 1.6 1.6 0.00 0.00 0.00 64 1011.3
20260510005429 21 253 0.0 0.0 0.00 0.00 0.00 63 1011.1
20260510004927 22 253 0.0 0.0 0.00 0.00 0.00 59 1010.9
20260510004424 22 253 0.0 0.0 0.00 0.00 0.00 60 1011.1
20260510003922 22 253 0.0 0.0 0.00 0.00 0.00 59 1010.5
20260510003419 23 253 0.0 0.0 0.00 0.00 0.00 57 1010.6
20260510002918 24 253 0.0 0.0 0.00 0.00 0.00 57 1010.7
20260510002416 24 252 0.0 0.0 0.00 0.00 0.00 58 1010.8
20260510001912 25 252 0.0 0.0 0.00 0.00 0.00 56 1010.5
20260510001410 25 252 0.0 0.0 0.00 0.00 0.00 53 1010.7
20260510000906 27 252 0.0 0.0 0.00 0.00 0.00 50 1010.6
20260510000404 27 252 0.0 0.0 0.00 0.00 0.00 47 1010.6
20260509235859 27 252 0.0 0.0 0.00 0.00 0.00 46 1010.6
20260509235356 28 252 0.0 0.0 0.00 0.00 0.00 46 1010.5
20260509234852 27 252 0.0 0.0 0.00 0.00 0.00 46 1010.4
20260509234350 27 252 0.0 0.0 0.00 0.00 0.00 46 1010.6
20260509233848 28 252 0.0 0.0 0.00 0.00 0.00 44 1010.5
20260509233345 27 252 0.0 0.0 0.00 0.00 0.00 45 1010.6
20260509232840 26 252 0.0 0.0 0.00 0.00 0.00 47 1010.5
20260509232339 26 252 0.0 0.0 0.00 0.00 0.00 43 1010.7
20260509231834 27 252 0.0 0.0 0.00 0.00 0.00 41 1010.5
20260509231331 27 252 0.0 0.0 0.00 0.00 0.00 43 1010.4
20260509230829 28 245 1.6 3.2 0.00 0.00 0.00 42 1010.4
20260509230326 28 241 1.6 1.6 0.00 0.00 0.00 40 1010.3
20260509225821 28 211 0.0 0.0 0.00 0.00 0.00 41 1010.2
20260509225318 27 237 0.0 1.6 0.00 0.00 0.00 39 1010.3
20260509224814 28 231 1.6 1.6 0.00 0.00 0.00 38 1010.2
20260509224310 28 243 1.6 1.6 0.00 0.00 0.00 39 1010.2
20260509223807 28 249 3.2 4.8 0.00 0.00 0.00 40 1010.0
20260509223304 29 235 3.2 3.2 0.00 0.00 0.00 39 1009.8
20260509222801 28 237 1.6 1.6 0.00 0.00 0.00 40 1010.0
20260509222256 29 224 1.6 1.6 0.00 0.00 0.00 40 1010.1
20260509221753 29 249 1.6 1.6 0.00 0.00 0.00 40 1010.0
20260509221249 29 244 1.6 1.6 0.00 0.00 0.00 40 1010.2
20260509220745 29 233 3.2 3.2 0.00 0.00 0.00 40 1010.1
20260509220241 29 238 3.2 3.2 0.00 0.00 0.00 38 1010.0
20260509215736 28 187 0.0 1.6 0.00 0.00 0.00 39 1010.0
20260509215234 28 148 1.6 1.6 0.00 0.00 0.00 40 1010.0
20260509214731 28 221 0.0 0.0 0.00 0.00 0.00 44 1010.0
20260509214228 28 214 1.6 1.6 0.00 0.00 0.00 42 1010.1
20260509213725 26 352 0.0 1.6 0.00 0.00 0.00 50 1010.1
20260509213220 26 239 0.0 0.0 0.00 0.00 0.00 47 1010.1
20260509212718 27 239 0.0 0.0 0.00 0.00 0.00 42 1010.2
20260509212215 27 239 0.0 0.0 0.00 0.00 0.00 45 1010.2
20260509211711 29 224 3.2 4.8 0.00 0.00 0.00 40 1010.3
20260509211208 28 165 0.0 1.6 0.00 0.00 0.00 41 1010.3
20260509210704 28 182 1.6 1.6 0.00 0.00 0.00 39 1010.3
20260509210201 28 189 0.0 1.6 0.00 0.00 0.00 40 1010.4
20260509205701 27 235 0.0 0.0 0.00 0.00 0.00 39 1010.4
20260509205201 27 127 0.0 0.0 0.00 0.00 0.00 39 1010.3
20260509204657 27 168 1.6 1.6 0.00 0.00 0.00 42 1010.3
20260509204153 27 243 1.6 1.6 0.00 0.00 0.00 40 1010.2
20260509203649 28 226 3.2 3.2 0.00 0.00 0.00 41 1010.4
20260509203148 28 266 4.8 6.4 0.00 0.00 0.00 44 1010.1
20260509202643 27 232 1.6 1.6 0.00 0.00 0.00 44 1010.3
20260509202138 28 244 1.6 1.6 0.00 0.00 0.00 38 1010.4
20260509201628 28 103 1.6 3.2 0.00 0.00 0.00 40 1010.3
20260509201126 27 223 3.2 3.2 0.00 0.00 0.00 45 1010.3
20260509200621 27 242 0.0 1.6 0.00 0.00 0.00 50 1010.4
20260509200116 27 113 1.6 3.2 0.00 0.00 0.00 44 1010.4
20260509195612 27 66 3.2 3.2 0.00 0.00 0.00 43 1010.5
20260509195107 27 30 1.6 3.2 0.00 0.00 0.00 45 1010.6
20260509194606 28 239 0.0 1.6 0.00 0.00 0.00 45 1010.4
20260509194105 27 226 0.0 1.6 0.00 0.00 0.00 45 1010.5
20260509193600 27 258 6.4 9.7 0.00 0.00 0.00 43 1010.7